CW9561 Weather Reports


time (UTC)temp
C
wind
direction
speed
KPH
gust
KPH
rain 1hr
cm
rain 24hr
cm
rain mn
cm
humidity
%
barometer
mb
20260906225029 24 268 0.0 0.0 0.00 0.00 0.00 29 1024.2
20260906224027 24 252 0.0 0.0 0.00 0.00 0.00 29 1024.1
20260906223025 25 221 0.0 0.0 0.00 0.00 0.00 28 1024.2
20260906222025 25 94 0.0 0.0 0.00 0.00 0.00 28 1024.3
20260906221022 25 221 0.0 0.0 0.00 0.00 0.00 27 1024.2
20260906215039 26 186 0.0 0.0 0.00 0.00 0.00 25 1024.3
20260906214035 26 76 0.0 0.0 0.00 0.00 0.00 25 1024.5
20260906213036 25 192 1.6 0.0 0.00 0.00 0.00 26 1024.0
20260906212033 25 340 1.6 0.0 0.00 0.00 0.00 25 1024.1
20260906211031 25 341 1.6 0.0 0.00 0.00 0.00 27 1025.0
20260906210028 25 227 3.2 0.0 0.00 0.00 0.00 26 1025.4
20260906205025 26 277 1.6 0.0 0.00 0.00 0.00 27 1025.6
20260906204024 26 274 1.6 0.0 0.00 0.00 0.00 24 1025.7
20260906203026 26 223 1.6 0.0 0.00 0.00 0.00 23 1025.6
20260906202024 26 152 0.0 0.0 0.00 0.00 0.00 25 1025.7
20260906201039 25 105 1.6 0.0 0.00 0.00 0.00 27 1025.6
20260906200039 25 271 1.6 0.0 0.00 0.00 0.00 23 1025.7
20260906195035 25 176 1.6 0.0 0.00 0.00 0.00 28 1025.9
20260906194034 25 293 0.0 0.0 0.00 0.00 0.00 30 1025.8
20260906193031 24 237 1.6 0.0 0.00 0.00 0.00 32 1025.8
20260906192027 24 267 3.2 0.0 0.00 0.00 0.00 33 1026.0
20260906191028 24 252 1.6 0.0 0.00 0.00 0.00 31 1026.1
20260906190027 22 64 3.2 0.0 0.00 0.00 0.00 34 1026.2
20260906185025 23 117 6.4 0.0 0.00 0.00 0.00 33 1026.3
20260906184024 23 49 1.6 0.0 0.00 0.00 0.00 38 1026.4
20260906183025 22 275 6.4 0.0 0.00 0.00 0.00 38 1026.7
20260906181023 21 36 4.8 0.0 0.00 0.00 0.00 41 1027.1
20260906180020 21 90 3.2 0.0 0.00 0.00 0.00 41 1027.5
20260906174028 20 101 4.8 0.0 0.00 0.00 0.00 44 1027.8
20260906172023 20 78 3.2 0.0 0.00 0.00 0.00 45 1028.2
20260906171039 20 78 3.2 0.0 0.00 0.00 0.00 45 1028.3
20260906165039 19 84 0.0 0.0 0.00 0.00 0.00 50 1028.7
20260906164035 18 42 0.0 0.0 0.00 0.00 0.00 51 1028.9
20260906163031 18 26 0.0 0.0 0.00 0.00 0.00 53 1028.1
20260906162030 18 360 1.6 0.0 0.00 0.00 0.00 53 1028.3
20260906161029 17 54 3.2 0.0 0.00 0.00 0.00 55 1028.4
20260906160033 17 103 1.6 0.0 0.00 0.00 0.00 56 1028.5
20260906155029 16 88 1.6 0.0 0.00 0.00 0.00 56 1028.6
20260906151029 15 82 0.0 0.0 0.00 0.00 0.00 58 1028.7
20260906150024 15 82 0.0 0.0 0.00 0.00 0.00 58 1028.8
20260906145020 15 82 3.2 0.0 0.00 0.00 0.00 59 1028.8
20260906142020 14 264 0.0 0.0 0.00 0.00 0.00 60 1028.8
20260906141020 13 264 0.0 0.0 0.00 0.00 0.00 62 1028.8
20260906140039 13 264 0.0 0.0 0.00 0.00 0.00 64 1028.8
20260906135035 12 263 0.0 0.0 0.00 0.00 0.00 66 1028.8
20260906134031 10 263 0.0 0.0 0.00 0.00 0.00 73 1028.6
20260906133036 8 263 0.0 0.0 0.00 0.00 0.00 75 1028.5
20260906132035 7 263 0.0 0.0 0.00 0.00 0.00 77 1028.4
20260906131032 6 263 0.0 0.0 0.00 0.00 0.00 77 1028.4
20260906130033 6 263 0.0 0.0 0.00 0.00 0.00 77 1028.4
20260906125020 6 263 0.0 0.0 0.00 0.00 0.00 77 1028.5
20260906124036 7 263 0.0 0.0 0.00 0.00 0.00 76 1028.2
20260906123034 7 263 0.0 0.0 0.00 0.00 0.00 76 1028.1
20260906120039 7 263 6.4 0.0 0.00 0.00 0.00 75 1027.9
20260906115036 7 263 4.8 0.0 0.00 0.00 0.00 75 1027.8
20260906114033 7 263 4.8 0.0 0.00 0.00 0.00 75 1027.9
20260906113034 7 263 3.2 0.0 0.00 0.00 0.00 75 1027.9
20260906112036 7 263 0.0 0.0 0.00 0.00 0.00 74 1028.0
20260906111033 7 263 0.0 0.0 0.00 0.00 0.00 74 1028.2
20260906105030 7 263 0.0 0.0 0.00 0.00 0.00 74 1028.3
20260906104027 7 263 0.0 0.0 0.00 0.00 0.00 74 1028.3
20260906103023 7 263 0.0 0.0 0.00 0.00 0.00 75 1028.1
20260906102025 7 263 0.0 0.0 0.00 0.00 0.00 74 1028.0
20260906101022 7 263 0.0 0.0 0.00 0.00 0.00 75 1027.9
20260906100021 7 263 0.0 0.0 0.00 0.00 0.00 75 1027.8
20260906095036 8 263 0.0 0.0 0.00 0.00 0.00 75 1027.7
20260906094033 8 263 0.0 0.0 0.00 0.00 0.00 76 1027.5
20260906093035 7 263 0.0 0.0 0.00 0.00 0.00 76 1027.5
20260906092032 8 263 0.0 0.0 0.00 0.00 0.00 75 1027.4
20260906091030 8 263 0.0 0.0 0.00 0.00 0.00 76 1027.3
20260906090024 8 263 0.0 0.0 0.00 0.00 0.00 75 1027.3
20260906085025 8 263 0.0 0.0 0.00 0.00 0.00 75 1027.3
20260906084023 8 263 0.0 0.0 0.00 0.00 0.00 74 1027.3
20260906083021 8 263 0.0 0.0 0.00 0.00 0.00 73 1027.0
20260906082037 8 263 0.0 0.0 0.00 0.00 0.00 74 1027.0
20260906081033 9 263 0.0 0.0 0.00 0.00 0.00 72 1027.0
20260906080018 10 263 0.0 0.0 0.00 0.00 0.00 71 1027.6
20260906075037 10 263 1.6 0.0 0.00 0.00 0.00 71 1027.6
20260906074034 10 263 6.4 0.0 0.00 0.00 0.00 71 1027.6
20260906073030 10 263 6.4 0.0 0.00 0.00 0.00 70 1027.6
20260906072033 10 263 1.6 0.0 0.00 0.00 0.00 69 1027.8
20260906071029 10 263 0.0 0.0 0.00 0.00 0.00 69 1027.7
20260906070026 10 263 0.0 0.0 0.00 0.00 0.00 70 1027.7
20260906065022 10 263 0.0 0.0 0.00 0.00 0.00 71 1027.6
20260906064024 10 263 0.0 0.0 0.00 0.00 0.00 69 1027.6
20260906063021 10 263 3.2 0.0 0.00 0.00 0.00 69 1027.7
20260906062017 10 263 0.0 0.0 0.00 0.00 0.00 67 1027.7
20260906060036 11 263 6.4 0.0 0.00 0.00 0.00 66 1027.6
20260906055037 11 263 4.8 0.0 0.00 0.00 0.00 66 1027.7
20260906054034 11 263 4.8 0.0 0.00 0.00 0.00 64 1027.7
20260906053034 12 263 4.8 0.0 0.00 0.00 0.00 62 1027.7
20260906052032 12 263 4.8 0.0 0.00 0.00 0.00 60 1027.7
20260906051030 12 263 3.2 0.0 0.00 0.00 0.00 60 1027.7
20260906045033 12 263 4.8 0.0 0.00 0.00 0.00 59 1027.7
20260906044029 12 263 4.8 0.0 0.00 0.00 0.00 59 1027.8
20260906043025 12 263 4.8 0.0 0.00 0.00 0.00 59 1027.9
20260906042024 12 263 4.8 0.0 0.00 0.00 0.00 59 1027.9
20260906035027 13 263 0.0 0.0 0.00 0.00 0.00 55 1027.6
20260906034025 13 263 1.6 0.0 0.00 0.00 0.00 54 1027.5
20260906033027 13 263 0.0 0.0 0.00 0.00 0.00 54 1027.4
20260906032024 14 263 0.0 0.0 0.00 0.00 0.00 52 1027.4
20260906031041 15 263 0.0 0.0 0.00 0.00 0.00 51 1027.2
20260906030038 15 263 1.6 0.0 0.00 0.00 0.00 50 1027.2
20260906025035 16 263 0.0 0.0 0.00 0.00 0.00 49 1027.0
20260906024037 17 263 0.0 0.0 0.00 0.00 0.00 46 1026.8
20260906023035 17 263 0.0 0.0 0.00 0.00 0.00 45 1026.5
20260906022033 17 263 0.0 0.0 0.00 0.00 0.00 45 1026.3
20260906021032 17 263 0.0 0.0 0.00 0.00 0.00 45 1026.2
20260906020034 18 263 0.0 0.0 0.00 0.00 0.00 45 1026.2
20260906015031 18 263 0.0 0.0 0.00 0.00 0.00 44 1026.1
20260906014027 18 263 0.0 0.0 0.00 0.00 0.00 44 1026.0
20260906013023 19 263 0.0 0.0 0.00 0.00 0.00 41 1025.8
20260906012038 20 263 0.0 0.0 0.00 0.00 0.00 40 1025.9
20260906011041 20 263 0.0 0.0 0.00 0.00 0.00 37 1026.0
20260906010037 21 263 0.0 0.0 0.00 0.00 0.00 35 1026.0
20260906005035 21 263 0.0 0.0 0.00 0.00 0.00 36 1026.0
20260906004030 22 263 0.0 0.0 0.00 0.00 0.00 32 1026.0
20260906003033 22 263 0.0 0.0 0.00 0.00 0.00 32 1026.1
20260906002031 22 246 0.0 0.0 0.00 0.00 0.00 32 1026.1
20260906001028 22 245 0.0 0.0 0.00 0.00 0.00 30 1025.9
20260906000026 22 232 0.0 0.0 0.00 0.00 0.00 31 1025.9
20260905235026 22 232 0.0 0.0 0.00 0.00 0.00 31 1025.8
20260905234026 22 232 0.0 0.0 0.00 0.00 0.00 30 1025.8
20260905233023 23 231 0.0 0.0 0.00 0.00 0.00 29 1025.8
20260905232039 23 232 0.0 0.0 0.00 0.00 0.00 30 1025.7
20260905231034 23 225 0.0 0.0 0.00 0.00 0.00 30 1025.7
20260905230035 23 225 0.0 0.0 0.00 0.00 0.00 31 1025.7